This is the latest recevied weather packets stored in our database for station/object N3TJJ-2. If no packets are shown the sender has not sent any weather packets the latest 10 day(s).
| Time | Temp. | Humidity | Pressure | Rain* | Wind** | Luminosity | Snow |
|---|---|---|---|---|---|---|---|
| 1788063170 | 16.67° C | 77% | 1024.3 hPa | 0 mm | - | - | - |
| 1788062804 | 16.67° C | 77% | 1024.3 hPa | 0 mm | - | - | - |
| 1788062462 | 16.67° C | 77% | 1024.1 hPa | 0 mm | - | - | - |
| 1788062085 | 17.22° C | 77% | 1024.1 hPa | 0 mm | - | - | - |
| 1788061729 | 17.22° C | 77% | 1024 hPa | 0 mm | - | - | - |
| 1788061375 | 17.22° C | 77% | 1024 hPa | 0 mm | - | - | - |
| 1788061059 | 17.22° C | 77% | 1024 hPa | 0 mm | - | - | - |
| 1788060667 | 16.67° C | 77% | 1024.1 hPa | 0 mm | - | - | - |
| 1788060288 | 16.67° C | 77% | 1024.2 hPa | 0 mm | - | - | - |
| 1788059941 | 16.67° C | 77% | 1024.2 hPa | 0 mm | - | - | - |
| 1788059598 | 16.67° C | 77% | 1024.2 hPa | 0 mm | - | - | - |
| 1788059218 | 16.67° C | 77% | 1024.3 hPa | 0 mm | - | - | - |
| 1788058853 | 17.22° C | 78% | 1024.2 hPa | 0 mm | - | - | - |
| 1788058700 | 18.33° C | 76% | 1024.1 hPa | 0 mm | - | - | - |
| 1788058216 | 18.89° C | 74% | 1024.2 hPa | 0 mm | - | - | - |
| 1788057776 | 18.33° C | 74% | 1024.2 hPa | 0 mm | - | - | - |
| 1788057572 | 18.33° C | 74% | 1024.1 hPa | 0 mm | - | - | - |
| 1788057188 | 17.78° C | 77% | 1024.1 hPa | 0 mm | - | - | - |
| 1788056747 | 17.22° C | 77% | 1024.1 hPa | 0 mm | - | - | - |
| 1788056336 | 17.22° C | 77% | 1024 hPa | 0 mm | - | - | - |
| 1788055989 | 17.78° C | 77% | 1024.1 hPa | 0 mm | - | - | - |
| 1788055604 | 17.78° C | 77% | 1024 hPa | 0 mm | - | - | - |
| 1788055296 | 17.78° C | 77% | 1024 hPa | 0 mm | - | - | - |
| 1788055241 | 17.78° C | 77% | 1023.9 hPa | 0 mm | - | - | - |
| 1788054546 | 17.78° C | 77% | 1024 hPa | 0 mm | - | - | - |
* Rain latest hour (hover to see other rain measurements)
** Current wind speed in m/s (hover to see current wind gust speed)